Weather History for Sarasota, FL

Change the Weather History Date:

Wednesday, January 15, 2014

  Actual Average Record
Temperature  
Mean Temperature 57 °F 61 °F  
Max Temperature 65 °F 71 °F 83 °F (1947)
Min Temperature 49 °F 52 °F 27 °F (1964)
Degree Days  
Heating Degree Days 8 5  
Month to date heating degree days 62 84  
Since 1 July heating degree days 104 239  
Cooling Degree Days 0 2  
Month to date cooling degree days 30 30  
Year to date cooling degree days 30 30  
Growing Degree Days 7 (Base 50)    
Moisture  
Dew Point 48 °F    
Average Humidity 73    
Maximum Humidity 93    
Minimum Humidity 48    
Precipitation  
Precipitation 0.04 in 0.05 in 2.30 in (1965)
Month to date precipitation 0.77 1.57  
Year to date precipitation 0.77 1.57  
Sea Level Pressure  
Sea Level Pressure 30.01 in    
Wind  
Wind Speed 5 mph (NW)    
Max Wind Speed 25 mph    
Max Gust Speed 32 mph    
Visibility 10 miles    
Events Rain    
T = Trace of Precipitation, MM = Missing Value Source: NWS Daily Summary

Daily Weather History Graph

Daily Weather History Graph

Search for Another Location

Airport:

Trip Planner

Search our weather history database for the weather conditions in past years. The results will help you decide how hot, cold, wet, or windy it might be!

Date:

Astronomy

Jan. 15, 2014 Rise Set
Actual Time 7:21 AM EST 5:57 PM EST
Civil Twilight 6:56 AM EST 6:23 PM EST
Nautical Twilight 6:27 AM EST 6:51 PM EST
Astronomical Twilight 5:59 AM EST 7:19 PM EST
Moon 5:49 PM EST (1/15) 6:41 AM EST (1/15)
Length of Visible Light 11h 26m
Length of Day
10h 36m
Full, 100% of the Moon is Illuminated
Jan 15
Full
Jan 15
Full
Jan 24
Last Quarter
Jan 30
New
Feb 6
First Quarter

Hourly Weather History & Observations

Time (EST) Temp. Dew Point Humidity Pressure Visibility Wind Dir Wind Speed Gust Speed Precip Events Conditions
12:53 AM 55.9 °F 48.9 °F 77% 30.01 in 10.0 mi NNW 6.9 mph - N/A   Clear
1:53 AM 55.0 °F 48.9 °F 80% 30.01 in 10.0 mi NNW 4.6 mph - N/A   Clear
2:53 AM 55.0 °F 48.0 °F 77% 30.01 in 10.0 mi Calm Calm - N/A   Clear
3:53 AM 51.1 °F 48.0 °F 89% 30.00 in 10.0 mi Calm Calm - N/A   Clear
4:53 AM 50.0 °F 48.0 °F 93% 30.00 in 10.0 mi NW 3.5 mph - N/A   Clear
5:53 AM 50.0 °F 46.9 °F 89% 30.00 in 10.0 mi Calm Calm - N/A   Clear
6:53 AM 50.0 °F 46.9 °F 89% 30.01 in 10.0 mi NNW 5.8 mph - N/A   Clear
7:53 AM 51.1 °F 46.9 °F 86% 30.03 in 10.0 mi NNW 4.6 mph - N/A   Clear
8:53 AM 53.1 °F 48.9 °F 86% 30.06 in 10.0 mi NNW 5.8 mph - N/A   Clear
9:53 AM 59.0 °F 52.0 °F 78% 30.09 in 10.0 mi NW 4.6 mph - N/A   Clear
10:53 AM 61.0 °F 48.0 °F 62% 30.07 in 10.0 mi NW 5.8 mph - N/A   Clear
11:53 AM 62.1 °F 45.0 °F 53% 30.06 in 10.0 mi NW 6.9 mph - N/A   Clear
12:53 PM 64.9 °F 45.0 °F 48% 30.02 in 10.0 mi NW 10.4 mph - N/A   Clear
1:53 PM 64.0 °F 46.0 °F 52% 30.00 in 10.0 mi WNW 10.4 mph - N/A   Clear
2:53 PM 64.9 °F 46.9 °F 52% 29.96 in 10.0 mi NW 10.4 mph - N/A   Clear
3:53 PM 63.0 °F 46.0 °F 54% 29.97 in 10.0 mi WNW 6.9 mph - N/A   Clear
4:53 PM 62.1 °F 46.0 °F 56% 29.97 in 10.0 mi NNW 4.6 mph - N/A   Clear
5:53 PM 61.0 °F 46.0 °F 58% 29.97 in 10.0 mi Calm Calm - N/A   Clear
6:53 PM 60.1 °F 48.0 °F 64% 29.99 in 10.0 mi Calm Calm - N/A   Clear
7:53 PM 59.0 °F 48.9 °F 69% 29.97 in 10.0 mi South 4.6 mph - N/A   Clear
8:53 PM 55.0 °F 50.0 °F 83% 29.98 in 10.0 mi Calm Calm - N/A   Clear
9:53 PM 55.0 °F 50.0 °F 83% 29.98 in 10.0 mi SE 3.5 mph - N/A   Scattered Clouds
10:53 PM 55.9 °F 51.1 °F 84% 30.00 in 9.0 mi NNW 18.4 mph 32.2 mph 0.01 in Rain Light Rain
11:53 PM 55.9 °F 52.0 °F 87% 30.00 in 10.0 mi NNW 11.5 mph - 0.03 in Rain Light Rain